Date String (YYYY-MM-DD hh:mm:ss) UTC,Instrument flags,Ambient pressure (hPa),Sample flow (lpm),Bypass flow (lpm),Sample temperature (°C),Ambient temperature (°C),ASC tube jacket temperature (°C),LED temperature (°C),Box temperature (°C),Sample RH (%),Span deviation,Mass concentration (μg/m³),Mass concentration (μg/m³),Mass concentration (μg/m³)
DateTimeUTC,F1_M11,P_M11,Q1_M11,Q2_M11,T1_M11,T2_M11,T3_M11,T4_M11,T5_M11,U1_M11,ZSPAN_M11,X2_M11,X0_M11,X1_M11
2022-05-15 13:00:00,,0830.1,4.99,0.00,29.9,29.0,00.0,38.7,31.6,13.2,0000.0,0003.72,0011.18,0002.24
2022-05-15 13:01:00,,0830.1,5.01,0.00,29.9,29.0,00.0,38.8,31.6,13.3,0000.0,0003.71,0011.37,0002.22
2022-05-15 13:02:00,,0830.1,5.00,0.00,29.9,29.0,00.0,38.8,31.6,13.7,0000.0,0003.71,0011.28,0002.22
2022-05-15 13:03:00,,0830.1,5.00,0.00,29.9,29.0,00.0,38.8,31.7,13.2,0000.0,0003.75,0011.31,0002.21
2022-05-15 13:04:00,,0830.2,5.00,0.00,29.9,29.0,00.0,38.8,31.7,12.8,0000.0,0003.81,0010.57,0002.23
2022-05-15 13:05:00,,0830.2,5.01,0.00,29.9,29.0,00.0,38.8,31.7,13.1,0000.0,0003.84,0010.26,0002.23
2022-05-15 13:06:00,,0830.2,5.00,0.00,29.9,29.0,00.0,38.8,31.7,13.5,0000.0,0003.90,0010.98,0002.23
2022-05-15 13:07:00,,0830.2,5.00,0.00,29.9,29.0,00.0,38.8,31.7,13.6,0000.0,0003.89,0011.16,0002.23
2022-05-15 13:08:00,,0830.2,5.00,0.00,29.9,29.0,00.0,38.8,31.7,13.5,0000.0,0003.94,0011.39,0002.24
2022-05-15 13:09:00,,0830.3,4.99,0.00,29.9,29.0,00.0,38.8,31.7,13.6,0000.0,0004.03,0011.57,0002.25
2022-05-15 13:10:00,,0830.2,5.00,0.00,30.0,29.0,00.0,38.8,31.7,13.4,0000.0,0004.00,0011.97,0002.25
2022-05-15 13:11:00,,0830.2,5.00,0.00,30.0,29.0,00.0,38.9,31.7,13.7,0000.0,0004.00,0011.88,0002.25
2022-05-15 13:12:00,,0830.3,5.00,0.00,30.0,29.0,00.0,38.9,31.7,13.5,0000.0,0004.07,0012.14,0002.27
2022-05-15 13:13:00,,0830.3,5.00,0.00,30.0,29.0,00.0,38.9,31.7,13.3,0000.0,0004.08,0013.78,0002.26
2022-05-15 13:14:00,,0830.3,5.01,0.00,30.0,29.1,00.0,38.9,31.7,13.1,0000.0,0004.08,0014.23,0002.26
2022-05-15 13:15:00,,0830.3,4.99,0.00,30.0,29.1,00.0,38.9,31.7,12.9,0000.0,0004.00,0014.71,0002.23
2022-05-15 13:16:00,,0830.4,5.01,0.00,30.0,29.1,00.0,38.9,31.7,12.9,0000.0,0003.96,0015.21,0002.22
2022-05-15 13:17:00,,0830.4,4.99,0.00,30.0,29.1,00.0,38.9,31.7,13.3,0000.0,0003.89,0015.25,0002.21
2022-05-15 13:18:00,,0830.4,5.00,0.00,30.0,29.1,00.0,38.9,31.7,13.5,0000.0,0003.82,0015.33,0002.20
2022-05-15 13:19:00,,0830.4,5.00,0.00,30.0,29.1,00.0,38.9,31.8,13.5,0000.0,0003.78,0014.76,0002.18
2022-05-15 13:20:00,,0830.4,5.00,0.00,30.0,29.1,00.0,38.9,31.8,13.7,0000.0,0003.69,0014.33,0002.16
2022-05-15 13:21:00,,0830.4,5.01,0.00,30.0,29.2,00.0,38.9,31.7,13.3,0000.0,0003.61,0013.49,0002.13
2022-05-15 13:22:00,,0830.4,5.00,0.00,30.0,29.2,00.0,38.9,31.7,13.5,0000.0,0003.65,0014.28,0002.12
2022-05-15 13:23:00,,0830.4,4.99,0.00,30.1,29.2,00.0,38.9,31.8,13.3,0000.0,0003.64,0015.20,0002.10
2022-05-15 13:24:00,,0830.4,4.99,0.00,30.1,29.2,00.0,39.0,31.8,13.0,0000.0,0003.64,0014.16,0002.09
2022-05-15 13:25:00,,0830.3,5.00,0.00,30.1,29.2,00.0,39.0,31.9,13.2,0000.0,0003.62,0014.30,0002.07
2022-05-15 13:26:00,,0830.4,5.00,0.00,30.1,29.2,00.0,39.0,31.8,13.1,0000.0,0003.63,0014.33,0002.07
2022-05-15 13:27:00,,0830.5,4.99,0.00,30.1,29.2,00.0,39.0,31.9,12.9,0000.0,0003.65,0014.50,0002.07
2022-05-15 13:28:00,,0830.4,5.01,0.00,30.1,29.2,00.0,39.0,31.9,12.9,0000.0,0003.65,0014.17,0002.06
2022-05-15 13:29:00,,0830.5,5.01,0.00,30.1,29.2,00.0,39.0,31.9,13.3,0000.0,0003.68,0014.32,0002.05
2022-05-15 13:30:00,,0830.5,5.00,0.00,30.1,29.2,00.0,39.0,31.9,13.6,0000.0,0003.67,0014.68,0002.04
2022-05-15 13:31:00,,0830.6,5.00,0.00,30.1,29.2,00.0,39.0,31.9,13.5,0000.0,0003.71,0014.99,0002.05
2022-05-15 13:32:00,,0830.5,4.99,0.00,30.1,29.2,00.0,39.0,31.9,12.8,0000.0,0003.78,0015.55,0002.07
2022-05-15 13:33:00,,0830.6,4.99,0.00,30.1,29.2,00.0,39.0,31.9,12.9,0000.0,0003.77,0015.15,0002.08
2022-05-15 13:34:00,,0830.6,5.00,0.00,30.1,29.2,00.0,39.1,31.9,13.3,0000.0,0003.72,0014.19,0002.08
2022-05-15 13:35:00,,0830.6,5.01,0.00,30.2,29.2,00.0,39.1,31.9,13.3,0000.0,0003.70,0014.56,0002.07
2022-05-15 13:36:00,,0830.8,4.99,0.00,30.2,29.2,00.0,39.1,31.9,13.3,0000.0,0003.71,0013.80,0002.09
2022-05-15 13:37:00,,0830.7,5.01,0.00,30.2,29.3,00.0,39.1,31.9,13.2,0000.0,0003.67,0013.04,0002.10
2022-05-15 13:38:00,,0830.7,5.01,0.00,30.2,29.2,00.0,39.1,31.9,13.1,0000.0,0003.62,0012.49,0002.09
2022-05-15 13:39:00,,0830.7,4.98,0.00,30.2,29.2,00.0,39.1,31.9,13.3,0000.0,0003.62,0011.91,0002.09
2022-05-15 13:40:00,,0830.7,5.00,0.00,30.2,29.3,00.0,39.1,31.9,13.4,0000.0,0003.67,0012.29,0002.11
2022-05-15 13:41:00,,0830.7,5.00,0.00,30.2,29.3,00.0,39.1,31.9,13.6,0000.0,0003.70,0012.69,0002.11
2022-05-15 13:42:00,,0830.7,4.99,0.00,30.2,29.3,00.0,39.1,32.0,13.3,0000.0,0003.68,0012.38,0002.11
2022-05-15 13:43:00,,0830.8,5.00,0.00,30.2,29.3,00.0,39.1,32.0,13.3,0000.0,0003.66,0011.70,0002.11
2022-05-15 13:44:00,,0830.9,4.99,0.00,30.2,29.3,00.0,39.1,32.0,13.3,0000.0,0003.64,0011.50,0002.13
2022-05-15 13:45:00,,0830.8,5.01,0.00,30.2,29.3,00.0,39.1,32.0,13.2,0000.0,0003.66,0011.57,0002.13
2022-05-15 13:46:00,,0830.9,5.00,0.00,30.2,29.3,00.0,39.1,32.0,13.0,0000.0,0003.66,0010.52,0002.14
2022-05-15 13:47:00,,0830.9,5.00,0.00,30.2,29.3,00.0,39.2,32.0,13.0,0000.0,0003.68,0011.81,0002.16
2022-05-15 13:48:00,,0831.0,5.00,0.00,30.2,29.3,00.0,39.2,32.0,13.0,0000.0,0003.71,0012.06,0002.18
2022-05-15 13:49:00,,0831.0,5.01,0.00,30.3,29.3,00.0,39.2,32.0,13.2,0000.0,0003.73,0012.10,0002.19
2022-05-15 13:50:00,,0831.2,5.00,0.00,30.3,29.3,00.0,39.2,32.0,13.2,0000.0,0003.74,0012.04,0002.21
2022-05-15 13:51:00,,0831.1,5.01,0.00,30.3,29.3,00.0,39.2,32.0,13.2,0000.0,0003.72,0011.68,0002.22
2022-05-15 13:52:00,,0831.1,5.00,0.00,30.3,29.3,00.0,39.2,32.0,13.3,0000.0,0003.71,0010.65,0002.25
2022-05-15 13:53:00,,0831.1,4.99,0.00,30.3,29.3,00.0,39.2,32.0,13.6,0000.0,0003.73,0011.67,0002.26
2022-05-15 13:54:00,,0831.1,5.00,0.00,30.3,29.3,00.0,39.2,32.0,13.5,0000.0,0003.71,0012.20,0002.28
2022-05-15 13:55:00,,0831.1,5.01,0.00,30.3,29.3,00.0,39.2,32.0,13.5,0000.0,0003.72,0013.05,0002.31
2022-05-15 13:56:00,,0831.1,5.00,0.00,30.3,29.3,00.0,39.2,32.0,13.6,0000.0,0003.75,0013.50,0002.35
2022-05-15 13:57:00,,0831.1,5.01,0.00,30.3,29.3,00.0,39.2,32.0,13.6,0000.0,0003.79,0014.62,0002.40
2022-05-15 13:58:00,,0831.1,5.01,0.00,30.3,29.3,00.0,39.2,32.0,13.5,0000.0,0003.81,0013.76,0002.42
2022-05-15 13:59:00,,0831.2,4.99,0.00,30.3,29.3,00.0,39.2,32.0,13.7,0000.0,0003.85,0013.75,0002.44
